Time,TemperatureF,DewpointF,PressureIn,WindDirection,WindDirectionDegrees,WindSpeedMPH,WindSpeedGustMPH,Humidity,HourlyPrecipIn,Conditions,Clouds,dailyrainin,SoftwareType,DateUTC
2013-03-19 00:00:00,30.9,29.4,29.42,WSW,258,4.0,8.3,94,0.00,,,0.00,VWS V14.00,2013-03-19 04:00:00,
2013-03-19 00:01:00,30.9,29.4,29.42,WSW,258,4.0,4.0,94,0.00,,,0.00,VWS V14.00,2013-03-19 04:01:00,
2013-03-19 00:06:00,30.6,28.8,29.42,WSW,253,12.8,12.8,93,0.00,,,0.00,VWS V14.00,2013-03-19 04:06:00,
2013-03-19 00:09:00,30.6,28.5,29.42,SW,224,9.6,9.6,92,0.00,,,0.00,VWS V14.00,2013-03-19 04:09:00,
2013-03-19 00:15:00,30.2,27.9,29.42,WSW,240,4.0,4.0,91,0.00,,,0.00,VWS V14.00,2013-03-19 04:15:00,
2013-03-19 00:20:00,30.2,27.6,29.42,SW,226,13.2,13.2,90,0.00,,,0.00,VWS V14.00,2013-03-19 04:20:00,
2013-03-19 00:26:00,29.8,26.7,29.42,SW,227,9.6,9.6,88,0.00,,,0.00,VWS V14.00,2013-03-19 04:26:00,
2013-03-19 00:31:00,29.7,26.5,29.42,WSW,237,5.4,10.5,88,0.00,,,0.00,VWS V14.00,2013-03-19 04:31:00,
2013-03-19 00:37:00,29.5,25.8,29.42,SSW,205,8.3,8.3,86,0.00,,,0.00,VWS V14.00,2013-03-19 04:37:00,
2013-03-19 00:43:00,29.1,25.2,29.42,SSW,212,12.8,12.8,85,0.00,,,0.00,VWS V14.00,2013-03-19 04:43:00,
2013-03-19 00:48:00,28.9,24.7,29.42,SW,219,14.5,14.5,84,0.00,,,0.00,VWS V14.00,2013-03-19 04:48:00,
2013-03-19 00:53:00,28.8,24.3,29.42,South,190,8.3,8.3,83,0.00,,,0.00,VWS V14.00,2013-03-19 04:53:00,
2013-03-19 00:58:00,28.8,24.3,29.42,SW,233,8.3,10.5,83,0.00,,,0.00,VWS V14.00,2013-03-19 04:58:00,
2013-03-19 01:04:00,28.6,23.8,29.42,WSW,255,5.8,5.8,82,0.00,,,0.00,VWS V14.00,2013-03-19 05:04:00,
2013-03-19 01:09:00,28.4,23.6,29.42,NNW,336,10.5,10.5,82,0.00,,,0.00,VWS V14.00,2013-03-19 05:09:00,
2013-03-19 01:14:00,28.0,23.0,29.42,SSW,212,10.5,10.5,81,0.00,,,0.00,VWS V14.00,2013-03-19 05:14:00,
2013-03-19 01:20:00,27.9,22.5,29.42,West,273,8.7,11.0,80,0.00,,,0.00,VWS V14.00,2013-03-19 05:20:00,
2013-03-19 01:25:00,27.7,22.3,29.42,WSW,248,10.5,10.5,80,0.00,,,0.00,VWS V14.00,2013-03-19 05:25:00,
2013-03-19 01:31:00,27.5,21.9,29.45,SW,221,6.3,6.3,79,0.00,,,0.00,VWS V14.00,2013-03-19 05:31:00,
2013-03-19 01:36:00,27.3,21.7,29.45,WSW,246,8.3,8.3,79,0.00,,,0.00,VWS V14.00,2013-03-19 05:36:00,
2013-03-19 01:42:00,27.1,21.2,29.45,West,260,10.1,10.1,78,0.00,,,0.00,VWS V14.00,2013-03-19 05:42:00,
2013-03-19 01:47:00,27.0,21.0,29.45,SW,214,3.6,3.6,78,0.00,,,0.00,VWS V14.00,2013-03-19 05:47:00,
2013-03-19 01:53:00,27.0,20.7,29.45,SW,214,8.1,8.1,77,0.00,,,0.00,VWS V14.00,2013-03-19 05:53:00,
2013-03-19 01:59:00,26.8,20.5,29.45,SW,224,6.3,10.1,77,0.00,,,0.00,VWS V14.00,2013-03-19 05:59:00,
2013-03-19 02:04:00,26.6,20.4,29.45,WSW,241,6.3,8.1,77,0.00,,,0.00,VWS V14.00,2013-03-19 06:04:00,
2013-03-19 02:09:00,26.4,20.2,29.45,SSW,210,8.1,12.8,77,0.00,,,0.00,VWS V14.00,2013-03-19 06:09:00,
2013-03-19 02:14:00,26.2,19.7,29.45,SW,233,8.7,13.2,76,0.00,,,0.00,VWS V14.00,2013-03-19 06:14:00,
2013-03-19 02:19:00,26.1,19.5,29.45,SW,219,8.3,8.3,76,0.00,,,0.00,VWS V14.00,2013-03-19 06:19:00,
2013-03-19 02:25:00,25.9,19.1,29.45,WNW,290,4.9,9.6,75,0.00,,,0.00,VWS V14.00,2013-03-19 06:25:00,
2013-03-19 02:30:00,25.7,19.2,29.45,NW,315,9.6,10.5,76,0.00,,,0.00,VWS V14.00,2013-03-19 06:30:00,
2013-03-19 02:35:00,25.5,19.0,29.45,SW,220,5.8,7.2,76,0.00,,,0.00,VWS V14.00,2013-03-19 06:35:00,
2013-03-19 02:40:00,25.3,18.9,29.45,SW,214,8.3,8.3,76,0.00,,,0.00,VWS V14.00,2013-03-19 06:40:00,
2013-03-19 02:46:00,25.3,18.9,29.45,SW,233,5.8,8.7,76,0.00,,,0.00,VWS V14.00,2013-03-19 06:46:00,
2013-03-19 02:52:00,25.2,19.0,29.45,West,264,6.3,6.3,77,0.00,,,0.00,VWS V14.00,2013-03-19 06:52:00,
2013-03-19 02:57:00,25.2,19.0,29.45,SSW,203,8.3,10.1,77,0.00,,,0.00,VWS V14.00,2013-03-19 06:57:00,
2013-03-19 03:02:00,25.0,18.8,29.45,SSW,205,9.6,14.5,77,0.00,,,0.00,VWS V14.00,2013-03-19 07:02:00,
2013-03-19 03:07:00,24.8,18.9,29.45,West,262,11.9,11.9,78,0.00,,,0.00,VWS V14.00,2013-03-19 07:07:00,
2013-03-19 03:12:00,24.6,18.8,29.45,SW,226,8.3,15.0,78,0.00,,,0.00,VWS V14.00,2013-03-19 07:12:00,
2013-03-19 03:18:00,24.4,18.3,29.45,SW,222,8.3,8.3,77,0.00,,,0.00,VWS V14.00,2013-03-19 07:18:00,
2013-03-19 03:23:00,24.3,18.1,29.45,SSW,210,5.4,6.3,77,0.00,,,0.00,VWS V14.00,2013-03-19 07:23:00,
2013-03-19 03:28:00,24.1,17.9,29.45,SW,227,8.3,8.3,77,0.00,,,0.00,VWS V14.00,2013-03-19 07:28:00,
2013-03-19 03:34:00,24.1,17.6,29.45,WSW,251,10.1,11.4,76,0.00,,,0.00,VWS V14.00,2013-03-19 07:34:00,
2013-03-19 03:39:00,23.9,17.5,29.45,SW,224,6.3,6.3,76,0.00,,,0.00,VWS V14.00,2013-03-19 07:39:00,
2013-03-19 03:45:00,23.7,17.3,29.45,SSW,206,8.7,8.7,76,0.00,,,0.00,VWS V14.00,2013-03-19 07:45:00,
2013-03-19 03:50:00,23.5,17.1,29.45,West,264,15.0,15.0,76,0.00,,,0.00,VWS V14.00,2013-03-19 07:50:00,
2013-03-19 03:55:00,23.5,17.4,29.45,SW,227,8.3,8.3,77,0.00,,,0.00,VWS V14.00,2013-03-19 07:55:00,
2013-03-19 04:00:00,23.5,17.1,29.45,South,182,6.3,7.6,76,0.00,,,0.00,VWS V14.00,2013-03-19 08:00:00,
2013-03-19 04:06:00,23.5,17.1,29.45,SW,216,8.3,10.5,76,0.00,,,0.00,VWS V14.00,2013-03-19 08:06:00,
2013-03-19 04:11:00,23.4,16.9,29.45,West,279,5.8,10.5,76,0.00,,,0.00,VWS V14.00,2013-03-19 08:11:00,
2013-03-19 04:16:00,23.2,16.8,29.45,WNW,284,5.8,5.8,76,0.00,,,0.00,VWS V14.00,2013-03-19 08:16:00,
2013-03-19 04:21:00,23.2,16.8,29.45,West,269,8.1,10.5,76,0.00,,,0.00,VWS V14.00,2013-03-19 08:21:00,
2013-03-19 04:27:00,23.2,16.8,29.45,WSW,255,11.0,11.0,76,0.00,,,0.00,VWS V14.00,2013-03-19 08:27:00,
2013-03-19 04:33:00,23.0,16.6,29.45,SW,234,8.3,8.3,76,0.00,,,0.00,VWS V14.00,2013-03-19 08:33:00,
2013-03-19 04:38:00,23.0,16.6,29.45,SSW,193,11.0,11.0,76,0.00,,,0.00,VWS V14.00,2013-03-19 08:38:00,
2013-03-19 04:44:00,23.0,16.6,29.45,West,268,4.0,6.3,76,0.00,,,0.00,VWS V14.00,2013-03-19 08:44:00,
2013-03-19 04:49:00,22.8,16.4,29.45,SW,227,5.4,7.6,76,0.00,,,0.00,VWS V14.00,2013-03-19 08:49:00,
2013-03-19 04:55:00,22.8,16.4,29.45,SW,234,3.6,8.7,76,0.00,,,0.00,VWS V14.00,2013-03-19 08:55:00,
2013-03-19 05:00:00,22.8,16.4,29.45,WSW,254,11.0,11.0,76,0.00,,,0.00,VWS V14.00,2013-03-19 09:00:00,
2013-03-19 05:05:00,22.8,16.4,29.45,West,271,6.3,8.1,76,0.00,,,0.00,VWS V14.00,2013-03-19 09:05:00,
2013-03-19 05:11:00,22.8,16.7,29.45,WSW,240,3.6,6.3,77,0.00,,,0.00,VWS V14.00,2013-03-19 09:11:00,
2013-03-19 05:17:00,22.6,16.5,29.45,SSW,212,5.4,5.4,77,0.00,,,0.00,VWS V14.00,2013-03-19 09:17:00,
2013-03-19 05:23:00,22.5,16.6,29.45,SW,223,5.8,5.8,78,0.00,,,0.00,VWS V14.00,2013-03-19 09:23:00,
2013-03-19 05:28:00,22.5,16.6,29.45,SW,216,8.7,8.7,78,0.00,,,0.00,VWS V14.00,2013-03-19 09:28:00,
2013-03-19 05:33:00,22.5,16.6,29.45,SW,234,13.2,13.2,78,0.00,,,0.00,VWS V14.00,2013-03-19 09:33:00,
2013-03-19 05:39:00,22.3,16.5,29.45,SW,221,5.4,5.4,78,0.00,,,0.00,VWS V14.00,2013-03-19 09:39:00,
2013-03-19 05:44:00,22.3,16.5,29.45,West,278,10.5,10.5,78,0.00,,,0.00,VWS V14.00,2013-03-19 09:44:00,
2013-03-19 05:49:00,22.3,16.5,29.45,SSW,204,9.6,9.6,78,0.00,,,0.00,VWS V14.00,2013-03-19 09:49:00,
2013-03-19 05:55:00,22.1,16.0,29.45,SW,221,6.3,6.3,77,0.00,,,0.00,VWS V14.00,2013-03-19 09:55:00,
2013-03-19 06:01:00,22.1,16.0,29.45,SW,232,15.4,15.4,77,0.00,,,0.00,VWS V14.00,2013-03-19 10:01:00,
2013-03-19 06:07:00,22.1,15.7,29.45,SW,225,10.5,10.5,76,0.00,,,0.00,VWS V14.00,2013-03-19 10:07:00,
2013-03-19 06:12:00,22.1,15.7,29.45,SSW,212,9.2,13.2,76,0.00,,,0.00,VWS V14.00,2013-03-19 10:12:00,
2013-03-19 06:18:00,22.1,15.7,29.48,WSW,245,8.1,11.4,76,0.00,,,0.00,VWS V14.00,2013-03-19 10:18:00,
2013-03-19 06:23:00,21.9,15.5,29.48,SW,225,8.1,8.1,76,0.00,,,0.00,VWS V14.00,2013-03-19 10:23:00,
2013-03-19 06:29:00,21.9,15.8,29.48,WSW,238,3.6,3.6,77,0.00,,,0.00,VWS V14.00,2013-03-19 10:29:00,
2013-03-19 06:35:00,21.9,15.8,29.48,SW,227,3.6,3.6,77,0.00,,,0.00,VWS V14.00,2013-03-19 10:35:00,
2013-03-19 06:40:00,21.9,15.8,29.48,West,270,10.5,10.5,77,0.00,,,0.00,VWS V14.00,2013-03-19 10:40:00,
2013-03-19 06:47:00,21.9,15.8,29.48,West,273,5.4,5.4,77,0.00,,,0.00,VWS V14.00,2013-03-19 10:47:00,
2013-03-19 06:52:00,21.9,15.8,29.48,SW,216,3.1,5.8,77,0.00,,,0.00,VWS V14.00,2013-03-19 10:52:00,
2013-03-19 06:57:00,21.7,15.9,29.48,WSW,248,3.6,7.6,78,0.00,,,0.00,VWS V14.00,2013-03-19 10:57:00,
2013-03-19 07:02:00,21.7,15.9,29.48,SSW,209,2.7,2.7,78,0.00,,,0.00,VWS V14.00,2013-03-19 11:02:00,
2013-03-19 07:08:00,21.7,16.2,29.48,WSW,247,5.4,5.4,79,0.00,,,0.00,VWS V14.00,2013-03-19 11:08:00,
2013-03-19 07:14:00,21.6,16.4,29.48,SSW,212,9.6,9.6,80,0.00,,,0.00,VWS V14.00,2013-03-19 11:14:00,
2013-03-19 07:19:00,21.6,16.4,29.48,SW,230,10.5,10.5,80,0.00,,,0.00,VWS V14.00,2013-03-19 11:19:00,
2013-03-19 07:25:00,21.4,16.2,29.48,West,281,6.3,12.8,80,0.00,,,0.00,VWS V14.00,2013-03-19 11:25:00,
2013-03-19 07:30:00,21.4,16.5,29.48,WSW,248,5.4,8.1,81,0.00,,,0.00,VWS V14.00,2013-03-19 11:30:00,
2013-03-19 07:37:00,21.4,16.5,29.48,SW,227,6.3,6.3,81,0.00,,,0.00,VWS V14.00,2013-03-19 11:37:00,
2013-03-19 07:43:00,21.2,16.6,29.51,SW,223,3.6,9.6,82,0.00,,,0.00,VWS V14.00,2013-03-19 11:43:00,
2013-03-19 07:48:00,21.2,16.6,29.51,WSW,241,8.1,8.1,82,0.00,,,0.00,VWS V14.00,2013-03-19 11:48:00,
2013-03-19 07:53:00,21.2,16.6,29.51,SW,216,6.7,6.7,82,0.00,,,0.00,VWS V14.00,2013-03-19 11:53:00,
2013-03-19 07:58:00,21.2,16.6,29.51,SW,230,12.8,13.2,82,0.00,,,0.00,VWS V14.00,2013-03-19 11:58:00,
2013-03-19 08:04:00,21.0,16.7,29.51,SW,219,8.7,8.7,83,0.00,,,0.00,VWS V14.00,2013-03-19 12:04:00,
2013-03-19 08:09:00,20.8,16.5,29.51,SW,234,6.7,8.7,83,0.00,,,0.00,VWS V14.00,2013-03-19 12:09:00,
2013-03-19 08:15:00,20.8,16.2,29.51,West,271,6.3,6.7,82,0.00,,,0.00,VWS V14.00,2013-03-19 12:15:00,
2013-03-19 08:21:00,20.8,16.2,29.51,West,271,3.6,3.6,82,0.00,,,0.00,VWS V14.00,2013-03-19 12:21:00,
2013-03-19 08:27:00,20.8,16.2,29.51,SW,224,5.4,5.4,82,0.00,,,0.00,VWS V14.00,2013-03-19 12:27:00,
2013-03-19 08:32:00,20.8,16.2,29.51,SW,229,7.2,7.2,82,0.00,,,0.00,VWS V14.00,2013-03-19 12:32:00,
2013-03-19 08:37:00,20.8,16.2,29.51,SSW,213,12.8,12.8,82,0.00,,,0.00,VWS V14.00,2013-03-19 12:37:00,
2013-03-19 08:43:00,20.8,16.2,29.51,WSW,237,11.0,11.0,82,0.00,,,0.00,VWS V14.00,2013-03-19 12:43:00,
2013-03-19 08:49:00,20.8,16.5,29.51,West,261,8.1,8.1,83,0.00,,,0.00,VWS V14.00,2013-03-19 12:49:00,
2013-03-19 08:55:00,21.0,17.0,29.51,SW,219,10.5,10.5,84,0.00,,,0.00,VWS V14.00,2013-03-19 12:55:00,
2013-03-19 09:00:00,21.0,17.2,29.51,SW,233,8.1,8.1,85,0.00,,,0.00,VWS V14.00,2013-03-19 13:00:00,
2013-03-19 09:06:00,21.0,17.2,29.51,SW,230,5.4,5.4,85,0.00,,,0.00,VWS V14.00,2013-03-19 13:06:00,
2013-03-19 09:11:00,21.0,17.2,29.51,SW,222,5.4,5.4,85,0.00,,,0.00,VWS V14.00,2013-03-19 13:11:00,
2013-03-19 09:17:00,21.0,17.2,29.51,WSW,241,5.4,5.4,85,0.00,,,0.00,VWS V14.00,2013-03-19 13:17:00,
2013-03-19 09:22:00,21.2,17.7,29.51,SSW,208,6.3,6.3,86,0.00,,,0.00,VWS V14.00,2013-03-19 13:22:00,
2013-03-19 09:28:00,21.2,17.7,29.51,SW,222,5.8,5.8,86,0.00,,,0.00,VWS V14.00,2013-03-19 13:28:00,
2013-03-19 09:34:00,21.4,17.9,29.51,WSW,246,7.6,7.6,86,0.00,,,0.00,VWS V14.00,2013-03-19 13:34:00,
2013-03-19 09:39:00,21.6,18.0,29.51,SSW,213,5.8,10.5,86,0.00,,,0.00,VWS V14.00,2013-03-19 13:39:00,
2013-03-19 09:45:00,21.6,18.3,29.51,SSW,200,9.6,10.5,87,0.00,,,0.00,VWS V14.00,2013-03-19 13:45:00,
2013-03-19 09:50:00,21.6,18.3,29.51,SW,219,10.5,10.5,87,0.00,,,0.00,VWS V14.00,2013-03-19 13:50:00,
2013-03-19 09:56:00,21.7,18.2,29.51,SSW,194,6.3,6.3,86,0.00,,,0.00,VWS V14.00,2013-03-19 13:56:00,
2013-03-19 10:01:00,21.9,18.4,29.51,SSW,213,11.9,11.9,86,0.00,,,0.00,VWS V14.00,2013-03-19 14:01:00,
2013-03-19 10:07:00,21.9,18.4,29.51,SSW,211,11.0,11.0,86,0.00,,,0.00,VWS V14.00,2013-03-19 14:07:00,
2013-03-19 10:12:00,21.9,18.4,29.51,SW,219,3.6,12.3,86,0.00,,,0.00,VWS V14.00,2013-03-19 14:12:00,
2013-03-19 10:17:00,21.9,18.1,29.51,SW,227,3.6,5.8,85,0.00,,,0.00,VWS V14.00,2013-03-19 14:17:00,
2013-03-19 10:23:00,21.9,18.1,29.51,WNW,282,5.4,11.4,85,0.00,,,0.00,VWS V14.00,2013-03-19 14:23:00,
2013-03-19 10:28:00,21.9,18.1,29.51,WNW,285,3.6,3.6,85,0.00,,,0.00,VWS V14.00,2013-03-19 14:28:00,
2013-03-19 10:34:00,22.1,18.3,29.51,SW,216,10.5,10.5,85,0.00,,,0.00,VWS V14.00,2013-03-19 14:34:00,
2013-03-19 10:40:00,22.1,18.0,29.51,WNW,300,4.9,4.9,84,0.00,,,0.00,VWS V14.00,2013-03-19 14:40:00,
2013-03-19 10:45:00,22.1,18.0,29.54,WSW,239,2.7,3.6,84,0.00,,,0.00,VWS V14.00,2013-03-19 14:45:00,
2013-03-19 10:50:00,22.3,18.2,29.54,SSW,200,8.7,8.7,84,0.00,,,0.00,VWS V14.00,2013-03-19 14:50:00,
2013-03-19 10:55:00,22.3,18.2,29.54,SW,227,9.6,9.6,84,0.00,,,0.00,VWS V14.00,2013-03-19 14:55:00,
2013-03-19 11:00:00,22.3,18.2,29.54,SSW,200,5.4,5.4,84,0.00,,,0.00,VWS V14.00,2013-03-19 15:00:00,
2013-03-19 11:06:00,22.3,18.2,29.54,SSW,206,7.6,9.6,84,0.00,,,0.00,VWS V14.00,2013-03-19 15:06:00,
2013-03-19 11:12:00,22.5,18.4,29.54,SW,235,3.6,8.1,84,0.00,,,0.00,VWS V14.00,2013-03-19 15:12:00,
2013-03-19 11:17:00,22.6,18.3,29.54,SW,232,10.1,10.1,83,0.00,,,0.00,VWS V14.00,2013-03-19 15:17:00,
2013-03-19 11:22:00,22.8,18.4,29.54,SW,230,6.3,7.6,83,0.00,,,0.00,VWS V14.00,2013-03-19 15:22:00,
2013-03-19 11:27:00,22.6,18.0,29.54,SW,222,9.6,9.6,82,0.00,,,0.00,VWS V14.00,2013-03-19 15:27:00,
2013-03-19 11:33:00,22.8,18.2,29.54,SW,222,4.0,8.7,82,0.00,,,0.00,VWS V14.00,2013-03-19 15:33:00,
2013-03-19 11:38:00,22.8,18.2,29.54,West,265,7.6,7.6,82,0.00,,,0.00,VWS V14.00,2013-03-19 15:38:00,
2013-03-19 11:43:00,23.0,18.3,29.54,SSW,213,3.6,3.6,82,0.00,,,0.00,VWS V14.00,2013-03-19 15:43:00,
2013-03-19 11:48:00,23.4,18.4,29.54,West,259,7.6,8.1,81,0.00,,,0.00,VWS V14.00,2013-03-19 15:48:00,
2013-03-19 11:54:00,23.5,18.6,29.54,SW,220,5.4,5.4,81,0.00,,,0.00,VWS V14.00,2013-03-19 15:54:00,
2013-03-19 11:59:00,23.7,18.8,29.54,WNW,288,4.9,5.4,81,0.00,,,0.00,VWS V14.00,2013-03-19 15:59:00,
2013-03-19 12:05:00,23.9,18.6,29.54,SW,226,8.7,8.7,80,0.00,,,0.00,VWS V14.00,2013-03-19 16:05:00,
2013-03-19 12:11:00,23.7,18.2,29.54,WSW,237,5.8,5.8,79,0.00,,,0.00,VWS V14.00,2013-03-19 16:11:00,
2013-03-19 12:17:00,23.5,17.7,29.57,West,264,5.8,5.8,78,0.00,,,0.00,VWS V14.00,2013-03-19 16:17:00,
2013-03-19 12:23:00,23.5,17.7,29.57,West,269,7.6,7.6,78,0.00,,,0.00,VWS V14.00,2013-03-19 16:23:00,
2013-03-19 12:29:00,23.4,17.5,29.57,West,265,8.3,8.3,78,0.00,,,0.00,VWS V14.00,2013-03-19 16:29:00,
2013-03-19 12:34:00,23.5,17.7,29.57,West,271,4.0,7.6,78,0.00,,,0.00,VWS V14.00,2013-03-19 16:34:00,
2013-03-19 12:39:00,23.7,18.2,29.57,WSW,245,5.4,5.8,79,0.00,,,0.00,VWS V14.00,2013-03-19 16:39:00,
2013-03-19 12:45:00,24.1,18.5,29.57,WNW,295,3.6,3.6,79,0.00,,,0.00,VWS V14.00,2013-03-19 16:45:00,
2013-03-19 12:50:00,23.9,18.0,29.57,SSW,206,8.1,8.1,78,0.00,,,0.00,VWS V14.00,2013-03-19 16:50:00,
2013-03-19 12:56:00,23.5,17.4,29.57,West,262,7.6,8.7,77,0.00,,,0.00,VWS V14.00,2013-03-19 16:56:00,
2013-03-19 13:02:00,23.5,17.4,29.57,West,267,5.4,5.8,77,0.00,,,0.00,VWS V14.00,2013-03-19 17:02:00,
2013-03-19 13:08:00,23.4,16.9,29.57,WSW,257,5.8,5.8,76,0.00,,,0.00,VWS V14.00,2013-03-19 17:08:00,
2013-03-19 13:14:00,23.5,17.1,29.57,SW,222,3.6,7.2,76,0.00,,,0.00,VWS V14.00,2013-03-19 17:14:00,
2013-03-19 13:19:00,23.5,17.1,29.57,WSW,249,6.7,6.7,76,0.00,,,0.00,VWS V14.00,2013-03-19 17:19:00,
2013-03-19 13:25:00,23.5,17.1,29.60,SSW,203,3.1,3.1,76,0.00,,,0.00,VWS V14.00,2013-03-19 17:25:00,
2013-03-19 13:30:00,23.4,16.9,29.60,WSW,243,8.3,8.3,76,0.00,,,0.00,VWS V14.00,2013-03-19 17:30:00,
2013-03-19 13:35:00,23.2,16.8,29.60,West,265,3.6,7.2,76,0.00,,,0.00,VWS V14.00,2013-03-19 17:35:00,
2013-03-19 13:40:00,23.2,16.8,29.60,WSW,242,5.4,7.6,76,0.00,,,0.00,VWS V14.00,2013-03-19 17:40:00,
2013-03-19 13:46:00,23.4,17.2,29.60,WSW,240,4.0,4.0,77,0.00,,,0.00,VWS V14.00,2013-03-19 17:46:00,
2013-03-19 13:51:00,23.5,17.4,29.60,SW,225,6.3,8.3,77,0.00,,,0.00,VWS V14.00,2013-03-19 17:51:00,
2013-03-19 13:57:00,23.4,16.9,29.60,WNW,287,6.3,7.6,76,0.00,,,0.00,VWS V14.00,2013-03-19 17:57:00,
2013-03-19 14:03:00,23.4,17.2,29.60,West,260,5.8,8.3,77,0.00,,,0.00,VWS V14.00,2013-03-19 18:03:00,
2013-03-19 14:08:00,23.4,17.2,29.60,WSW,254,5.8,5.8,77,0.00,,,0.00,VWS V14.00,2013-03-19 18:08:00,
2013-03-19 14:14:00,23.5,17.4,29.63,SW,234,6.3,6.3,77,0.00,,,0.00,VWS V14.00,2013-03-19 18:14:00,
2013-03-19 14:19:00,23.4,17.2,29.63,WNW,288,2.7,7.6,77,0.00,,,0.00,VWS V14.00,2013-03-19 18:19:00,
2013-03-19 14:25:00,23.4,16.9,29.63,WSW,246,6.3,6.3,76,0.00,,,0.00,VWS V14.00,2013-03-19 18:25:00,
2013-03-19 14:30:00,23.4,16.9,29.63,WSW,253,10.1,10.1,76,0.00,,,0.00,VWS V14.00,2013-03-19 18:30:00,
2013-03-19 14:37:00,23.5,17.1,29.63,SW,227,11.4,11.4,76,0.00,,,0.00,VWS V14.00,2013-03-19 18:37:00,
2013-03-19 14:42:00,23.5,16.8,29.63,SW,215,3.1,5.8,75,0.00,,,0.00,VWS V14.00,2013-03-19 18:42:00,
2013-03-19 14:48:00,23.5,16.5,29.63,SW,218,5.4,8.1,74,0.00,,,0.00,VWS V14.00,2013-03-19 18:48:00,
2013-03-19 14:53:00,23.5,16.5,29.63,WSW,254,5.4,7.2,74,0.00,,,0.00,VWS V14.00,2013-03-19 18:53:00,
2013-03-19 14:58:00,23.5,16.5,29.63,SW,233,7.6,7.6,74,0.00,,,0.00,VWS V14.00,2013-03-19 18:58:00,
2013-03-19 15:03:00,23.5,16.5,29.63,WSW,258,6.3,6.3,74,0.00,,,0.00,VWS V14.00,2013-03-19 19:03:00,
2013-03-19 15:08:00,23.7,16.7,29.63,WSW,250,5.8,8.1,74,0.00,,,0.00,VWS V14.00,2013-03-19 19:08:00,
2013-03-19 15:13:00,23.7,16.7,29.63,SSW,203,5.4,5.4,74,0.00,,,0.00,VWS V14.00,2013-03-19 19:13:00,
2013-03-19 15:19:00,23.9,16.8,29.63,WNW,284,5.4,9.6,74,0.00,,,0.00,VWS V14.00,2013-03-19 19:19:00,
2013-03-19 15:25:00,24.3,16.9,29.63,SSW,206,10.5,10.5,73,0.00,,,0.00,VWS V14.00,2013-03-19 19:25:00,
2013-03-19 15:30:00,24.4,17.0,29.63,SW,226,6.3,6.3,73,0.00,,,0.00,VWS V14.00,2013-03-19 19:30:00,
2013-03-19 15:35:00,24.6,17.2,29.63,NNW,346,4.9,6.7,73,0.00,,,0.00,VWS V14.00,2013-03-19 19:35:00,
2013-03-19 15:40:00,25.2,17.1,29.63,SW,231,5.8,5.8,71,0.00,,,0.00,VWS V14.00,2013-03-19 19:40:00,
2013-03-19 15:47:00,25.3,17.3,29.63,WNW,296,5.4,8.1,71,0.00,,,0.00,VWS V14.00,2013-03-19 19:47:00,
2013-03-19 15:53:00,25.3,16.6,29.63,WNW,288,6.3,11.0,69,0.00,,,0.00,VWS V14.00,2013-03-19 19:53:00,
2013-03-19 15:59:00,25.3,16.6,29.63,WSW,238,12.3,12.3,69,0.00,,,0.00,VWS V14.00,2013-03-19 19:59:00,
2013-03-19 16:04:00,25.3,16.3,29.63,SW,221,3.1,3.1,68,0.00,,,0.00,VWS V14.00,2013-03-19 20:04:00,
2013-03-19 16:09:00,25.7,17.0,29.63,WSW,242,4.5,5.8,69,0.00,,,0.00,VWS V14.00,2013-03-19 20:09:00,
2013-03-19 16:15:00,25.9,16.8,29.63,WSW,243,5.8,11.0,68,0.00,,,0.00,VWS V14.00,2013-03-19 20:15:00,
2013-03-19 16:20:00,26.1,17.0,29.63,SW,220,8.1,8.1,68,0.00,,,0.00,VWS V14.00,2013-03-19 20:20:00,
2013-03-19 16:25:00,26.2,16.8,29.63,SSW,211,6.3,7.6,67,0.00,,,0.00,VWS V14.00,2013-03-19 20:25:00,
2013-03-19 16:31:00,26.2,16.8,29.66,WSW,249,8.3,8.3,67,0.00,,,0.00,VWS V14.00,2013-03-19 20:31:00,
2013-03-19 16:36:00,26.4,17.0,29.66,WSW,251,5.4,8.7,67,0.00,,,0.00,VWS V14.00,2013-03-19 20:36:00,
2013-03-19 16:42:00,26.2,16.4,29.66,West,273,9.2,9.6,66,0.00,,,0.00,VWS V14.00,2013-03-19 20:42:00,
2013-03-19 16:47:00,26.2,16.8,29.63,SW,233,4.0,4.0,67,0.00,,,0.00,VWS V14.00,2013-03-19 20:47:00,
2013-03-19 16:53:00,26.4,17.0,29.63,SW,222,5.4,5.4,67,0.00,,,0.00,VWS V14.00,2013-03-19 20:53:00,
2013-03-19 16:58:00,26.6,17.1,29.66,WSW,249,5.8,5.8,67,0.00,,,0.00,VWS V14.00,2013-03-19 20:58:00,
2013-03-19 17:03:00,26.8,17.0,29.66,WNW,294,5.4,6.7,66,0.00,,,0.00,VWS V14.00,2013-03-19 21:03:00,
2013-03-19 17:09:00,27.0,17.1,29.66,WSW,242,4.0,7.6,66,0.00,,,0.00,VWS V14.00,2013-03-19 21:09:00,
2013-03-19 17:14:00,27.0,17.1,29.66,South,178,3.1,3.1,66,0.00,,,0.00,VWS V14.00,2013-03-19 21:14:00,
2013-03-19 17:20:00,27.1,16.6,29.66,SW,232,7.6,7.6,64,0.00,,,0.00,VWS V14.00,2013-03-19 21:20:00,
2013-03-19 17:25:00,27.1,16.6,29.66,SW,222,6.3,6.3,64,0.00,,,0.00,VWS V14.00,2013-03-19 21:25:00,
2013-03-19 17:31:00,27.3,16.8,29.66,West,273,11.0,11.0,64,0.00,,,0.00,VWS V14.00,2013-03-19 21:31:00,
2013-03-19 17:36:00,27.5,16.9,29.66,WSW,250,8.1,8.1,64,0.00,,,0.00,VWS V14.00,2013-03-19 21:36:00,
2013-03-19 17:41:00,27.7,17.1,29.66,WNW,295,8.7,12.3,64,0.00,,,0.00,VWS V14.00,2013-03-19 21:41:00,
2013-03-19 17:47:00,27.9,16.9,29.66,West,268,4.0,8.3,63,0.00,,,0.00,VWS V14.00,2013-03-19 21:47:00,
2013-03-19 17:52:00,28.0,16.7,29.66,SW,230,7.6,7.6,62,0.00,,,0.00,VWS V14.00,2013-03-19 21:52:00,
2013-03-19 17:58:00,28.0,16.3,29.66,West,271,4.0,8.1,61,0.00,,,0.00,VWS V14.00,2013-03-19 21:58:00,
2013-03-19 18:03:00,28.0,16.3,29.66,WNW,289,5.8,5.8,61,0.00,,,0.00,VWS V14.00,2013-03-19 22:03:00,
2013-03-19 18:09:00,28.0,16.3,29.66,NW,324,7.6,10.5,61,0.00,,,0.00,VWS V14.00,2013-03-19 22:09:00,
2013-03-19 18:14:00,28.2,16.5,29.66,WSW,249,2.7,10.1,61,0.00,,,0.00,VWS V14.00,2013-03-19 22:14:00,
2013-03-19 18:20:00,28.6,16.5,29.66,SSW,209,5.8,8.3,60,0.00,,,0.00,VWS V14.00,2013-03-19 22:20:00,
2013-03-19 18:27:00,28.8,16.2,29.66,WNW,294,9.2,9.2,59,0.00,,,0.00,VWS V14.00,2013-03-19 22:27:00,
2013-03-19 18:33:00,28.8,16.2,29.69,SW,224,8.1,8.1,59,0.00,,,0.00,VWS V14.00,2013-03-19 22:33:00,
2013-03-19 18:38:00,28.8,16.2,29.69,SW,222,5.4,5.4,59,0.00,,,0.00,VWS V14.00,2013-03-19 22:38:00,
2013-03-19 18:43:00,28.8,16.2,29.69,WNW,292,3.1,3.1,59,0.00,,,0.00,VWS V14.00,2013-03-19 22:43:00,
2013-03-19 18:48:00,28.6,15.7,29.69,SW,231,6.3,12.3,58,0.00,,,0.00,VWS V14.00,2013-03-19 22:48:00,
2013-03-19 18:53:00,28.6,15.7,29.69,WNW,291,7.6,10.1,58,0.00,,,0.00,VWS V14.00,2013-03-19 22:53:00,
2013-03-19 18:59:00,28.6,15.7,29.69,West,270,6.3,11.9,58,0.00,,,0.00,VWS V14.00,2013-03-19 22:59:00,
2013-03-19 19:04:00,28.8,15.5,29.69,NNW,339,7.2,8.3,57,0.00,,,0.00,VWS V14.00,2013-03-19 23:04:00,
2013-03-19 19:09:00,28.8,15.5,29.69,West,265,4.0,5.4,57,0.00,,,0.00,VWS V14.00,2013-03-19 23:09:00,
2013-03-19 19:15:00,28.8,15.1,29.69,SW,223,11.0,11.0,56,0.00,,,0.00,VWS V14.00,2013-03-19 23:15:00,
2013-03-19 19:20:00,28.8,15.1,29.69,WSW,237,5.4,5.4,56,0.00,,,0.00,VWS V14.00,2013-03-19 23:20:00,
2013-03-19 19:25:00,28.8,15.1,29.69,WNW,297,7.2,7.2,56,0.00,,,0.00,VWS V14.00,2013-03-19 23:25:00,
2013-03-19 19:31:00,28.8,14.6,29.69,NNW,346,6.3,10.5,55,0.00,,,0.00,VWS V14.00,2013-03-19 23:31:00,
2013-03-19 19:36:00,28.8,14.6,29.69,WNW,291,4.9,6.3,55,0.00,,,0.00,VWS V14.00,2013-03-19 23:36:00,
2013-03-19 19:41:00,28.6,14.5,29.69,NW,304,4.9,4.9,55,0.00,,,0.00,VWS V14.00,2013-03-19 23:41:00,
2013-03-19 19:47:00,28.4,13.9,29.69,WSW,243,2.7,5.8,54,0.00,,,0.00,VWS V14.00,2013-03-19 23:47:00,
2013-03-19 19:53:00,28.2,13.7,29.69,SW,234,5.4,5.4,54,0.00,,,0.00,VWS V14.00,2013-03-19 23:53:00,
2013-03-19 19:59:00,28.0,14.0,29.72,West,264,7.6,7.6,55,0.00,,,0.00,VWS V14.00,2013-03-19 23:59:00,
2013-03-19 20:04:00,27.9,13.8,29.72,West,261,5.8,5.8,55,0.00,,,0.00,VWS V14.00,2013-03-20 00:04:00,
2013-03-19 20:10:00,27.9,13.4,29.72,WNW,284,8.1,8.1,54,0.00,,,0.00,VWS V14.00,2013-03-20 00:10:00,
2013-03-19 20:15:00,27.5,13.1,29.72,WSW,246,2.7,2.7,54,0.00,,,0.00,VWS V14.00,2013-03-20 00:15:00,
2013-03-19 20:20:00,27.3,12.9,29.72,WSW,249,8.7,8.7,54,0.00,,,0.00,VWS V14.00,2013-03-20 00:20:00,
2013-03-19 20:26:00,27.1,12.7,29.72,SW,231,5.4,5.8,54,0.00,,,0.00,VWS V14.00,2013-03-20 00:26:00,
2013-03-19 20:31:00,27.1,12.7,29.72,West,271,4.0,4.9,54,0.00,,,0.00,VWS V14.00,2013-03-20 00:31:00,
2013-03-19 20:37:00,27.0,12.6,29.72,West,266,2.7,10.1,54,0.00,,,0.00,VWS V14.00,2013-03-20 00:37:00,
2013-03-19 20:42:00,27.0,12.6,29.72,NW,307,6.3,6.3,54,0.00,,,0.00,VWS V14.00,2013-03-20 00:42:00,
2013-03-19 20:47:00,27.0,12.6,29.72,West,280,4.9,6.3,54,0.00,,,0.00,VWS V14.00,2013-03-20 00:47:00,
2013-03-19 20:52:00,27.0,12.1,29.72,NNW,336,6.3,6.3,53,0.00,,,0.00,VWS V14.00,2013-03-20 00:52:00,
2013-03-19 20:58:00,27.0,12.1,29.72,North,349,4.0,4.0,53,0.00,,,0.00,VWS V14.00,2013-03-20 00:58:00,
2013-03-19 21:04:00,27.0,12.1,29.72,WSW,247,5.4,6.3,53,0.00,,,0.00,VWS V14.00,2013-03-20 01:04:00,
2013-03-19 21:09:00,27.0,12.1,29.72,WSW,245,6.3,6.3,53,0.00,,,0.00,VWS V14.00,2013-03-20 01:09:00,
2013-03-19 21:15:00,27.0,12.1,29.72,WSW,243,5.4,5.8,53,0.00,,,0.00,VWS V14.00,2013-03-20 01:15:00,
2013-03-19 21:20:00,27.0,12.1,29.72,SSW,213,4.0,6.7,53,0.00,,,0.00,VWS V14.00,2013-03-20 01:20:00,
2013-03-19 21:25:00,26.8,12.0,29.72,NW,312,5.8,8.1,53,0.00,,,0.00,VWS V14.00,2013-03-20 01:25:00,
2013-03-19 21:32:00,26.8,12.0,29.72,West,266,5.4,5.4,53,0.00,,,0.00,VWS V14.00,2013-03-20 01:32:00,
2013-03-19 21:37:00,26.6,11.8,29.72,NNW,327,6.3,6.3,53,0.00,,,0.00,VWS V14.00,2013-03-20 01:37:00,
2013-03-19 21:43:00,26.4,11.6,29.72,SSW,198,4.0,5.8,53,0.00,,,0.00,VWS V14.00,2013-03-20 01:43:00,
2013-03-19 21:48:00,26.4,11.6,29.72,NNW,348,2.7,4.0,53,0.00,,,0.00,VWS V14.00,2013-03-20 01:48:00,
2013-03-19 21:54:00,26.2,11.4,29.72,East,100,3.1,5.8,53,0.00,,,0.00,VWS V14.00,2013-03-20 01:54:00,
2013-03-19 22:00:00,26.1,11.3,29.75,West,264,8.1,8.1,53,0.00,,,0.00,VWS V14.00,2013-03-20 02:00:00,
2013-03-19 22:05:00,26.1,11.3,29.75,North,353,2.7,3.1,53,0.00,,,0.00,VWS V14.00,2013-03-20 02:05:00,
2013-03-19 22:11:00,26.1,11.3,29.75,WSW,245,4.0,4.0,53,0.00,,,0.00,VWS V14.00,2013-03-20 02:11:00,
2013-03-19 22:17:00,26.2,11.4,29.75,SSW,209,4.9,4.9,53,0.00,,,0.00,VWS V14.00,2013-03-20 02:17:00,
2013-03-19 22:22:00,26.2,11.4,29.75,WNW,303,7.6,7.6,53,0.00,,,0.00,VWS V14.00,2013-03-20 02:22:00,
2013-03-19 22:27:00,26.2,11.4,29.75,WSW,248,0.0,5.8,53,0.00,,,0.00,VWS V14.00,2013-03-20 02:27:00,
2013-03-19 22:32:00,26.2,11.4,29.75,NNW,337,10.1,10.1,53,0.00,,,0.00,VWS V14.00,2013-03-20 02:32:00,
2013-03-19 22:38:00,26.2,11.4,29.75,WSW,256,3.1,3.6,53,0.00,,,0.00,VWS V14.00,2013-03-20 02:38:00,
2013-03-19 22:43:00,26.4,11.6,29.75,SW,227,4.0,4.0,53,0.00,,,0.00,VWS V14.00,2013-03-20 02:43:00,
2013-03-19 22:48:00,26.6,11.8,29.75,West,264,4.0,4.0,53,0.00,,,0.00,VWS V14.00,2013-03-20 02:48:00,
2013-03-19 22:54:00,26.6,11.4,29.75,SW,222,2.7,8.7,52,0.00,,,0.00,VWS V14.00,2013-03-20 02:54:00,
2013-03-19 22:59:00,26.8,11.5,29.75,WNW,298,3.6,4.0,52,0.00,,,0.00,VWS V14.00,2013-03-20 02:59:00,
2013-03-19 23:05:00,26.8,11.5,29.75,North,353,4.9,4.9,52,0.00,,,0.00,VWS V14.00,2013-03-20 03:05:00,
2013-03-19 23:11:00,27.0,11.7,29.75,West,265,3.6,7.2,52,0.00,,,0.00,VWS V14.00,2013-03-20 03:11:00,
2013-03-19 23:16:00,27.0,11.7,29.75,West,268,5.4,5.4,52,0.00,,,0.00,VWS V14.00,2013-03-20 03:16:00,
2013-03-19 23:22:00,27.0,11.7,29.75,NW,313,8.7,8.7,52,0.00,,,0.00,VWS V14.00,2013-03-20 03:22:00,
2013-03-19 23:27:00,27.0,11.7,29.75,NW,317,4.9,4.9,52,0.00,,,0.00,VWS V14.00,2013-03-20 03:27:00,
2013-03-19 23:32:00,27.0,11.7,29.75,WSW,239,5.8,8.1,52,0.00,,,0.00,VWS V14.00,2013-03-20 03:32:00,
2013-03-19 23:37:00,27.1,11.9,29.75,WSW,253,10.1,10.1,52,0.00,,,0.00,VWS V14.00,2013-03-20 03:37:00,
2013-03-19 23:42:00,27.1,11.4,29.75,NW,304,3.6,4.0,51,0.00,,,0.00,VWS V14.00,2013-03-20 03:42:00,
2013-03-19 23:48:00,27.1,11.4,29.75,NNW,337,5.8,5.8,51,0.00,,,0.00,VWS V14.00,2013-03-20 03:48:00,
2013-03-19 23:53:00,27.0,10.8,29.75,NW,326,3.1,6.3,50,0.00,,,0.00,VWS V14.00,2013-03-20 03:53:00,
2013-03-19 23:59:00,26.6,10.9,29.72,SW,235,7.6,7.6,51,0.00,,,0.00,VWS V14.00,2013-03-20 03:59:00,